Location: Home
(42.5358°N, 72.7383°W)
Time: 17:55:41
(UTC-05:00)

Tiros 1 - Pass Details

Date: 05 December 2021
Orbit: 629 x 664 km, 48.4° (Epoch: 18 January)

Event Time Altitude Azimuth Distance (km) Brightness Sun altitude
Rises 22:28:52 0° 296° (WNW) 2,948 - -64.9°
Reaches altitude 10° 22:31:12 10° 298° (WNW) 2,042 - -65.1°
Maximum altitude 22:35:55 74° 24° (NNE) 678 - -65.7°
Drops below altitude 10° 22:40:40 10° 109° (ESE) 2,058 - -66.3°
Sets 22:43:01 0° 111° (ESE) 2,973 - -66.5°
